Terug naar catalogus

FENGYUN 1C DEB

ActiefSSO
NORAD 31742·DEBRIS·🇨🇳 China

Gelanceerd May 10, 1999 vanaf Taiyuan Satellite Launch Center

Loading…

Volgende Passages (komende 24 uur)

TLE

VersSource: Space-Track

Epoch: Sep 13, 2026, 09:22 UTC

1 31742U 99025CER 26256.39072273  .00000908  00000-0  29019-3 0  9997
2 31742  98.8857 132.2634 0074210 235.4478 123.9691 14.40697287  5983

Volg FENGYUN 1C DEB in realtime met AllMySat

Download on the App Store